Location: Berg
(47.2344°N, 9.5296°E)
Time: 22:22:19
(UTC+00:00)

ARGOS - Pass Details

Date: 24 January 2021
Orbit: 821 x 834 km, 98.4° (Epoch: 04 March)

Event Time Altitude Azimuth Distance (km) Brightness Sun altitude
Rises 17:55:31 0° 152° (SSE) 3,342 6.1 -17.4°
Reaches altitude 10° 17:57:52 10° 149° (SSE) 2,415 5.4 -17.8°
Maximum altitude 18:03:08 60° 71° (ENE) 940 3.1 -18.7°
Drops below altitude 10° 18:08:26 10° 352° (N) 2,439 5.6 -19.6°
Sets 18:10:49 0° 349° (N) 3,378 6.4 -20.0°
